GSAT0217 (GALILEO 21) (43057 NORAD) Tracking and Keplerian Element Data

This shows tracking and keplerian element data for the satellite.

Feedback or suggestion? Click here.




ElementValue
Catalog43057
NameGSAT0217 (GALILEO 21)
Epoch Orbit374
Epoch Day201.59902005
Epoch Year2018
RAAN300.8964
Inclination56.8231
Eccentricity0.0003661
Argument of Perigee236.7556
Mean Anonmoly123.2387
Mean Motion1.70474405
Decay Rate-7.2E-07
L11 43057U 17079C 18201.59902005 -.00000072 00000-0 00000+0 0 9994
L22 43057 56.8231 300.8964 0003661 236.7556 123.2387 1.70474405 3748

Live tracking and technical data element details for GSAT0217 (GALILEO 21) (NORAD 43057). GSAT0217 (GALILEO 21) can be tracked NOW for your location showing map with azimuth and elevation plus other details from your city location.

Track the satellite on the map from your city or location and see movement details for azimuth, elevation, latitude, longitude, range, height, and movement on the map or in text.







IsCatalogInMostPopularTable: catalog: 43057, numindb: 93
Update: records affected: 1



GetName: 43057 GSAT0217 (GALILEO 21)

Hit Count: updated at: Mon, 23 Jul 2018 08:03:40 GMT